EW7806 Weather Reports


Display with metric or nautical units.
time (UTC)temp
F
wind
direction
speed
MPH
gust
MPH
rain 1hr
in
rain 24hr
in
rain mn
in
humidity
%
barometer
mb
20210418170053 56 138 0.0 2.0 0.00 0.00 0.00 61 1022.4
20210418165747 56 46 1.0 2.0 0.00 0.00 0.00 59 1022.4
20210418165149 56 41 1.0 2.0 0.00 0.00 0.00 59 1022.4
20210418164547 56 6 1.0 3.0 0.00 0.00 0.00 61 1022.4
20210418164043 56 134 1.0 4.0 0.00 0.00 0.00 60 1022.4
20210418163618 56 156 1.0 4.0 0.00 0.00 0.00 60 1022.4
20210418163230 57 285 1.0 3.0 0.00 0.00 0.00 61 1022.4
20210418163025 57 25 1.0 3.0 0.00 0.00 0.00 61 1022.3
20210418162702 57 84 1.0 3.0 0.00 0.00 0.00 60 1022.4
20210418161551 57 61 1.0 4.0 0.00 0.00 0.00 60 1022.4
20210418161043 57 316 1.0 4.0 0.00 0.00 0.00 60 1022.3
20210418160553 57 7 0.0 2.0 0.00 0.00 0.00 61 1022.4
20210418160055 57 142 1.0 2.0 0.00 0.00 0.00 60 1022.3
20210418155818 57 98 1.0 2.0 0.00 0.00 0.00 61 1022.3
20210418155158 57 98 1.0 3.0 0.00 0.00 0.00 59 1022.4
20210418154528 57 47 1.0 3.0 0.00 0.00 0.00 61 1022.3
20210418154029 57 89 1.0 3.0 0.00 0.00 0.00 61 1022.4
20210418153519 57 99 1.0 3.0 0.00 0.00 0.00 61 1022.4
20210418153028 57 63 1.0 3.0 0.00 0.00 0.00 61 1022.4
20210418152722 57 78 1.0 4.0 0.00 0.00 0.00 61 1022.4
20210418152221 57 69 1.0 4.0 0.00 0.00 0.00 61 1022.5
20210418151521 58 295 1.0 2.0 0.00 0.00 0.00 61 1022.5
20210418151024 58 126 1.0 3.0 0.00 0.00 0.00 62 1022.5
20210418150525 58 44 1.0 4.0 0.00 0.00 0.00 62 1022.5
20210418150047 58 131 1.0 4.0 0.00 0.00 0.00 61 1022.5
20210418145750 58 153 1.0 3.0 0.00 0.00 0.00 62 1022.5
20210418145143 58 101 1.0 3.0 0.00 0.00 0.00 62 1022.6
20210418144522 58 60 0.0 2.0 0.00 0.00 0.00 61 1022.6
20210418143956 58 103 1.0 2.0 0.00 0.00 0.00 61 1022.6
20210418143454 58 66 1.0 4.0 0.00 0.00 0.00 60 1022.6
20210418142954 58 103 1.0 4.0 0.00 0.00 0.00 59 1022.7
20210418142811 58 11 1.0 4.0 0.00 0.00 0.00 59 1022.6
20210418142153 58 159 1.0 4.0 0.00 0.00 0.00 58 1022.7
20210418141437 58 72 1.0 4.0 0.00 0.00 0.00 58 1022.7
20210418140946 58 345 1.0 4.0 0.00 0.00 0.00 55 1022.8
20210418140437 58 68 1.0 4.0 0.00 0.00 0.00 54 1022.7
20210418135957 58 65 1.0 4.0 0.00 0.00 0.00 57 1022.7
20210418135840 58 84 1.0 5.0 0.00 0.00 0.00 57 1022.8
20210418135138 58 93 1.0 5.0 0.00 0.00 0.00 56 1022.9
20210418134446 58 55 1.0 4.0 0.00 0.00 0.00 57 1022.9
20210418133939 58 269 1.0 3.0 0.00 0.00 0.00 58 1022.9
20210418133438 58 63 1.0 5.0 0.00 0.00 0.00 60 1022.9
20210418132944 58 99 2.0 11.0 0.00 0.00 0.00 65 1022.9
20210418132716 58 151 2.0 11.0 0.00 0.00 0.00 63 1022.8
20210418132027 58 176 2.0 6.0 0.00 0.00 0.00 64 1022.9
20210418131434 58 128 1.0 5.0 0.00 0.00 0.00 64 1022.9
20210418130936 58 254 1.0 5.0 0.00 0.00 0.00 64 1022.9
20210418130440 58 143 1.0 5.0 0.00 0.00 0.00 64 1022.9
20210418130219 58 192 1.0 8.0 0.00 0.00 0.00 66 1022.9
20210418130033 58 201 2.0 8.0 0.00 0.00 0.00 66 1022.9
20210418125547 57 226 3.0 7.0 0.00 0.00 0.00 65 1022.8
20210418124428 57 186 3.0 8.0 0.00 0.00 0.00 66 1022.9
20210418124052 57 174 3.0 8.0 0.00 0.00 0.00 66 1023.0
20210418123841 57 277 3.0 7.0 0.00 0.00 0.00 66 1023.1
20210418123354 57 182 2.0 7.0 0.00 0.00 0.00 65 1023.1
20210418123041 57 179 2.0 8.0 0.00 0.00 0.00 66 1023.1
20210418122200 56 238 3.0 8.0 0.00 0.00 0.00 66 1023.1
20210418121437 56 238 3.0 9.0 0.00 0.00 0.00 66 1023.1
20210418121024 56 249 3.0 9.0 0.00 0.00 0.00 65 1023.1
20210418120458 56 214 2.0 8.0 0.00 0.00 0.00 66 1023.1
20210418120130 56 304 3.0 9.0 0.00 0.00 0.00 65 1023.1
20210418115914 56 205 3.0 9.0 0.00 0.00 0.00 65 1023.1
20210418115106 57 196 3.0 9.0 0.00 0.00 0.00 65 1023.1
20210418114416 58 214 2.0 7.0 0.00 0.00 0.00 64 1023.1
20210418113905 59 199 1.0 7.0 0.00 0.00 0.00 62 1023.2
20210418113401 59 182 1.0 4.0 0.00 0.00 0.00 63 1023.1
20210418113043 59 276 2.0 7.0 0.00 0.00 0.00 62 1023.1
20210418112851 59 158 2.0 7.0 0.00 0.00 0.00 59 1023.0
20210418112027 61 145 1.0 5.0 0.00 0.00 0.00 61 1023.2
20210418111338 60 35 0.0 3.0 0.00 0.00 0.00 58 1023.1
20210418110842 60 92 1.0 3.0 0.00 0.00 0.00 57 1023.2
20210418110344 59 72 1.0 5.0 0.00 0.00 0.00 58 1023.2
20210418110041 59 276 1.0 5.0 0.00 0.00 0.00 59 1023.2
20210418105827 59 98 1.0 4.0 0.00 0.00 0.00 57 1023.3
20210418104910 60 41 1.0 3.0 0.00 0.00 0.00 53 1023.3
20210418104335 59 60 1.0 2.0 0.00 0.00 0.00 55 1023.3
20210418103829 58 53 1.0 4.0 0.00 0.00 0.00 57 1023.3
20210418103314 58 271 1.0 4.0 0.00 0.00 0.00 60 1023.4
20210418102941 59 262 0.0 4.0 0.00 0.00 0.00 55 1023.3
20210418102823 59 100 0.0 1.0 0.00 0.00 0.00 58 1023.4
20210418101910 59 82 1.0 4.0 0.00 0.00 0.00 58 1023.4
20210418101332 59 63 1.0 4.0 0.00 0.00 0.00 58 1023.5
20210418100825 59 69 0.0 2.0 0.00 0.00 0.00 58 1023.4
20210418100309 58 65 0.0 1.0 0.00 0.00 0.00 60 1023.4
20210418095952 57 51 0.0 1.0 0.00 0.00 0.00 61 1023.4
20210418095847 57 70 0.0 1.0 0.00 0.00 0.00 62 1023.4
20210418094904 56 82 0.0 4.0 0.00 0.00 0.00 62 1023.4
20210418094259 56 65 0.0 4.0 0.00 0.00 0.00 64 1023.4
20210418093758 56 68 0.0 1.0 0.00 0.00 0.00 64 1023.4
20210418093258 55 67 0.0 4.0 0.00 0.00 0.00 65 1023.4
20210418092839 54 257 0.0 5.0 0.00 0.00 0.00 67 1023.4
20210418092532 55 269 0.0 3.0 0.00 0.00 0.00 65 1023.5
20210418091830 54 63 0.0 3.0 0.00 0.00 0.00 67 1023.6
20210418091242 54 130 0.0 2.0 0.00 0.00 0.00 68 1023.6
20210418090746 54 167 0.0 2.0 0.00 0.00 0.00 68 1023.6
20210418090245 54 77 0.0 2.0 0.00 0.00 0.00 68 1023.6
20210418085948 53 69 0.0 2.0 0.00 0.00 0.00 69 1023.6
20210418085558 53 63 0.0 2.0 0.00 0.00 0.00 70 1023.6
20210418084827 52 67 0.0 2.0 0.00 0.00 0.00 72 1023.6
20210418084243 52 72 0.0 2.0 0.00 0.00 0.00 72 1023.6
20210418083734 51 51 0.0 2.0 0.00 0.00 0.00 74 1023.6
20210418083220 51 76 1.0 2.0 0.00 0.00 0.00 75 1023.6
20210418082839 50 37 1.0 2.0 0.00 0.00 0.00 75 1023.6
20210418082348 50 335 0.0 2.0 0.00 0.00 0.00 77 1023.5
20210418081724 49 46 0.0 2.0 0.00 0.00 0.00 78 1023.6
20210418081218 49 60 0.0 1.0 0.00 0.00 0.00 80 1023.6
20210418080709 49 120 0.0 1.0 0.00 0.00 0.00 81 1023.6
20210418080222 48 138 0.0 1.0 0.00 0.00 0.00 81 1023.6
20210418080102 48 140 0.0 1.0 0.00 0.00 0.00 82 1023.5
20210418075650 48 120 0.0 1.0 0.00 0.00 0.00 83 1023.6
20210418074632 48 120 0.0 1.0 0.00 0.00 0.00 84 1023.7
20210418074143 47 121 0.0 1.0 0.00 0.00 0.00 85 1023.8
20210418073618 47 120 0.0 1.0 0.00 0.00 0.00 86 1023.8
20210418073114 47 122 0.0 1.0 0.00 0.00 0.00 86 1023.8
20210418072725 47 67 0.0 1.0 0.00 0.00 0.00 86 1023.9
20210418072224 47 67 0.0 1.0 0.00 0.00 0.00 87 1023.8
20210418071529 46 67 0.0 1.0 0.00 0.00 0.00 87 1023.7
20210418071045 46 66 0.0 1.0 0.00 0.00 0.00 87 1023.7
20210418070523 46 265 0.0 1.0 0.00 0.00 0.00 88 1023.6
20210418070030 45 266 0.0 1.0 0.00 0.00 0.00 88 1023.6
20210418065750 45 265 0.0 1.0 0.00 0.00 0.00 88 1023.6
20210418065238 45 266 0.0 1.0 0.00 0.00 0.00 89 1023.6
20210418064510 44 265 0.0 1.0 0.00 0.00 0.00 88 1023.6
20210418064019 44 265 0.0 1.0 0.00 0.00 0.00 88 1023.6
20210418063448 43 262 0.0 1.0 0.00 0.00 0.00 88 1023.6
20210418062936 42 262 0.0 1.0 0.00 0.00 0.00 88 1023.7
20210418062734 42 262 0.0 1.0 0.00 0.00 0.00 88 1023.7
20210418062021 42 262 0.0 1.0 0.00 0.00 0.00 88 1023.6
20210418061437 41 262 0.0 1.0 0.00 0.00 0.00 88 1023.7
20210418060942 41 262 0.0 1.0 0.00 0.00 0.00 88 1023.6
20210418060421 40 262 0.0 0.0 0.00 0.00 0.00 88 1023.7
20210418060107 40 262 0.0 0.0 0.00 0.00 0.00 88 1023.7
20210418055850 39 262 0.0 0.0 0.00 0.00 0.00 87 1023.7
20210418055121 39 262 0.0 0.0 0.00 0.00 0.00 87 1023.6
20210418054352 39 262 0.0 0.0 0.00 0.00 0.00 87 1023.6
20210418053847 38 262 0.0 0.0 0.00 0.00 0.00 87 1023.6
20210418053339 38 262 0.0 0.0 0.00 0.00 0.00 87 1023.6
20210418053019 38 262 0.0 0.0 0.00 0.00 0.00 87 1023.6
20210418052757 38 262 0.0 0.0 0.00 0.00 0.00 87 1023.6
20210418052036 38 262 0.0 0.0 0.00 0.00 0.00 87 1023.5
20210418051327 38 262 0.0 0.0 0.00 0.00 0.00 86 1023.5
20210418050820 37 262 0.0 0.0 0.00 0.00 0.00 86 1023.5
20210418050317 37 262 0.0 0.0 0.00 0.00 0.00 86 1023.4
20210418045920 38 262 0.0 0.0 0.00 0.00 0.00 86 1023.4
20210418045531 38 262 0.0 0.0 0.00 0.00 0.00 86 1023.2
20210418044816 38 262 0.0 0.0 0.00 0.00 0.00 86 1023.3
20210418044232 38 262 0.0 0.0 0.00 0.00 0.00 86 1023.3
20210418043724 38 262 0.0 0.0 0.00 0.00 0.00 86 1023.3
20210418043220 38 262 0.0 0.0 0.00 0.00 0.00 86 1023.2
20210418042859 38 262 0.0 0.0 0.00 0.00 0.00 86 1023.2
20210418042732 38 262 0.0 0.0 0.00 0.00 0.00 86 1023.2
20210418041655 38 262 0.0 0.0 0.00 0.00 0.00 86 1023.2
20210418041141 38 262 0.0 0.0 0.00 0.00 0.00 86 1023.3
20210418040644 38 262 0.0 0.0 0.00 0.00 0.00 86 1023.2
20210418040136 38 262 0.0 0.0 0.00 0.00 0.00 86 1023.3
20210418035834 38 262 0.0 0.0 0.00 0.00 0.00 86 1023.2
20210418035429 38 262 0.0 0.0 0.00 0.00 0.00 86 1023.2
20210418034624 38 262 0.0 0.0 0.00 0.00 0.00 86 1023.3
20210418034110 38 262 0.0 0.0 0.00 0.00 0.00 86 1023.2
20210418033617 38 262 0.0 0.0 0.00 0.00 0.00 86 1023.3
20210418033126 38 262 0.0 0.0 0.00 0.00 0.00 86 1023.3
20210418032923 38 262 0.0 0.0 0.00 0.00 0.00 85 1023.3
20210418032545 38 262 0.0 0.0 0.00 0.00 0.00 85 1023.3
20210418031544 38 262 0.0 0.0 0.00 0.00 0.00 85 1023.4
20210418031042 39 262 0.0 0.0 0.00 0.00 0.00 85 1023.4
20210418030537 39 262 0.0 0.0 0.00 0.00 0.00 85 1023.4
20210418030249 39 262 0.0 0.0 0.00 0.00 0.00 85 1023.4
20210418025943 39 262 0.0 0.0 0.00 0.00 0.00 85 1023.5
20210418025431 39 262 0.0 0.0 0.00 0.00 0.00 85 1023.4
20210418024545 39 262 0.0 0.0 0.00 0.00 0.00 85 1023.5
20210418024048 40 262 0.0 0.0 0.00 0.00 0.00 85 1023.5
20210418023512 40 262 0.0 0.0 0.00 0.00 0.00 85 1023.5
20210418023000 40 262 0.0 0.0 0.00 0.00 0.00 85 1023.5
20210418022747 40 262 0.0 0.0 0.00 0.00 0.00 85 1023.5
20210418022022 40 262 0.0 0.0 0.00 0.00 0.00 85 1023.5
20210418021440 40 262 0.0 0.0 0.00 0.00 0.00 85 1023.5
20210418020940 40 262 0.0 0.0 0.00 0.00 0.00 85 1023.6
20210418020458 41 262 0.0 0.0 0.00 0.00 0.00 85 1023.5
20210418015946 41 262 0.0 0.0 0.00 0.00 0.00 85 1023.6
20210418015838 41 262 0.0 0.0 0.00 0.00 0.00 85 1023.6
20210418015126 41 262 0.0 1.0 0.00 0.00 0.00 85 1023.6
20210418014416 41 262 0.0 1.0 0.00 0.00 0.00 85 1023.7
20210418013913 41 262 0.0 0.0 0.00 0.00 0.00 85 1023.7
20210418013421 41 262 0.0 1.0 0.00 0.00 0.00 85 1023.7
20210418013144 41 262 0.0 1.0 0.00 0.00 0.00 85 1023.8
20210418012936 41 262 0.0 1.0 0.00 0.00 0.00 85 1023.8
20210418012046 41 262 0.0 0.0 0.00 0.00 0.00 85 1023.8
20210418011340 41 262 0.0 0.0 0.00 0.00 0.00 85 1023.8
20210418010840 41 262 0.0 0.0 0.00 0.00 0.00 85 1023.8
20210418010345 41 262 0.0 0.0 0.00 0.00 0.00 85 1023.8
20210418005915 41 262 0.0 2.0 0.00 0.00 0.00 85 1023.9
20210418005733 41 262 0.0 2.0 0.00 0.00 0.00 85 1023.9
20210418004925 41 262 0.0 2.0 0.00 0.00 0.00 85 1023.9
20210418004321 41 262 0.0 2.0 0.00 0.00 0.00 85 1024.0
20210418003825 41 262 0.0 2.0 0.00 0.00 0.00 85 1024.0
20210418003314 41 262 0.0 2.0 0.00 0.00 0.00 85 1024.0
20210418002917 41 271 0.0 1.0 0.00 0.00 0.00 85 1024.1
20210418002721 41 271 0.0 1.0 0.00 0.00 0.00 85 1024.2
20210418001859 41 271 0.0 1.0 0.00 0.00 0.00 85 1024.3
20210418001246 41 266 0.0 2.0 0.00 0.00 0.00 84 1024.3
20210418000740 41 266 0.0 2.0 0.00 0.00 0.00 84 1024.4
20210418000238 41 266 0.0 0.0 0.00 0.00 0.00 84 1024.5
20210417235909 41 266 0.0 1.0 0.00 0.00 0.00 84 1024.5
20210417235722 41 266 0.0 1.0 0.00 0.00 0.00 84 1024.5
20210417234756 41 266 0.0 1.0 0.00 0.00 0.00 84 1024.5
20210417234234 41 266 0.0 1.0 0.00 0.00 0.00 84 1024.6
20210417233742 41 266 0.0 1.0 0.00 0.00 0.00 84 1024.6
20210417233237 41 266 0.0 1.0 0.00 0.00 0.00 84 1024.6
20210417232901 41 266 0.0 1.0 0.00 0.00 0.00 84 1024.6
20210417232534 41 266 0.0 1.0 0.00 0.00 0.00 84 1024.6
20210417231741 41 266 0.0 1.0 0.00 0.00 0.00 84 1024.6
20210417231215 41 266 0.0 1.0 0.00 0.00 0.00 84 1024.6
20210417230706 41 266 0.0 1.0 0.00 0.00 0.00 83 1024.7
20210417230158 41 266 0.0 1.0 0.00 0.00 0.00 83 1024.7
20210417225917 41 266 0.0 1.0 0.00 0.00 0.00 83 1024.7
20210417225525 41 266 0.0 1.0 0.00 0.00 0.00 83 1024.8
20210417224639 41 266 0.0 1.0 0.00 0.00 0.00 83 1024.8
20210417224138 41 266 0.0 1.0 0.00 0.00 0.00 83 1024.8
20210417223639 42 266 0.0 1.0 0.00 0.00 0.00 83 1024.8
20210417223148 42 266 0.0 1.0 0.00 0.00 0.00 83 1024.8
20210417222933 42 266 0.0 1.0 0.00 0.00 0.00 83 1024.8
20210417222737 42 266 0.0 1.0 0.00 0.00 0.00 82 1024.7
20210417221639 42 266 0.0 1.0 0.00 0.00 0.00 82 1024.7
20210417221112 42 266 0.0 1.0 0.00 0.00 0.00 82 1024.7
20210417220611 42 264 0.0 1.0 0.00 0.00 0.00 82 1024.7
20210417220105 42 264 0.0 2.0 0.00 0.00 0.00 82 1024.7
20210417215735 42 264 0.0 2.0 0.00 0.00 0.00 82 1024.7
20210417215152 42 257 0.0 2.0 0.00 0.00 0.00 82 1024.7
20210417214551 42 256 0.0 1.0 0.00 0.00 0.00 82 1024.7
20210417214044 42 256 0.0 1.0 0.00 0.00 0.00 81 1024.9
20210417213541 42 256 0.0 1.0 0.00 0.00 0.00 81 1024.9
20210417213043 42 256 0.0 1.0 0.00 0.00 0.00 81 1024.9
20210417212749 42 256 0.0 1.0 0.00 0.00 0.00 81 1024.8
20210417212123 42 256 0.0 1.0 0.00 0.00 0.00 80 1024.8
20210417211542 42 256 0.0 1.0 0.00 0.00 0.00 80 1024.8
20210417211041 42 256 0.0 1.0 0.00 0.00 0.00 80 1024.9
20210417210525 42 256 0.0 1.0 0.00 0.00 0.00 80 1024.9
20210417210035 42 257 0.0 2.0 0.00 0.00 0.00 80 1024.9
20210417205846 42 256 0.0 3.0 0.00 0.00 0.00 79 1024.9
20210417205307 42 256 0.0 3.0 0.00 0.00 0.00 79 1024.9
20210417204523 42 248 0.0 1.0 0.00 0.00 0.00 79 1024.9
20210417204049 42 248 0.0 2.0 0.00 0.00 0.00 78 1025.0
20210417203504 42 248 0.0 2.0 0.00 0.00 0.00 78 1024.9
20210417203022 42 238 0.0 2.0 0.00 0.00 0.00 78 1025.0
20210417202752 43 148 0.0 1.0 0.00 0.00 0.00 78 1025.0
20210417202038 43 148 0.0 1.0 0.00 0.00 0.00 77 1024.9
20210417201441 43 148 0.0 1.0 0.00 0.00 0.00 77 1025.0
20210417200943 43 144 0.0 1.0 0.00 0.00 0.00 77 1025.0
20210417200438 43 144 0.0 1.0 0.00 0.00 0.00 77 1025.0
20210417195935 43 144 0.0 1.0 0.00 0.00 0.00 77 1025.1
20210417195727 43 144 0.0 1.0 0.00 0.00 0.00 76 1025.1
20210417195124 44 144 0.0 1.0 0.00 0.00 0.00 76 1025.0
20210417194435 44 144 0.0 1.0 0.00 0.00 0.00 76 1025.0
20210417193935 44 144 0.0 1.0 0.00 0.00 0.00 76 1025.0
20210417193428 44 144 0.0 1.0 0.00 0.00 0.00 76 1025.0
20210417192924 44 144 0.0 1.0 0.00 0.00 0.00 75 1025.0
20210417192756 44 144 0.0 1.0 0.00 0.00 0.00 75 1025.1
20210417192033 44 144 0.0 1.0 0.00 0.00 0.00 75 1025.1
20210417191415 44 145 0.0 1.0 0.00 0.00 0.00 75 1025.1
20210417190911 45 98 0.0 1.0 0.00 0.00 0.00 75 1025.1
20210417190411 45 98 0.0 1.0 0.00 0.00 0.00 75 1025.1
20210417185925 45 99 0.0 1.0 0.00 0.00 0.00 74 1025.1
20210417185733 45 100 0.0 1.0 0.00 0.00 0.00 74 1025.1
20210417184925 45 99 0.0 1.0 0.00 0.00 0.00 74 1025.1
20210417184425 46 112 0.0 1.0 0.00 0.00 0.00 73 1025.1
20210417183904 46 112 0.0 1.0 0.00 0.00 0.00 73 1025.2
20210417183403 46 115 0.0 1.0 0.00 0.00 0.00 72 1025.2
20210417182948 46 98 0.0 1.0 0.00 0.00 0.00 72 1025.2
20210417182835 47 129 0.0 1.0 0.00 0.00 0.00 72 1025.3
20210417182042 47 75 0.0 1.0 0.00 0.00 0.00 71 1025.4
20210417181340 47 101 0.0 2.0 0.00 0.00 0.00 71 1025.4
20210417180837 47 101 0.0 2.0 0.00 0.00 0.00 71 1025.3
20210417180345 47 94 0.0 3.0 0.00 0.00 0.00 70 1025.3
20210417175920 47 58 0.0 3.0 0.00 0.00 0.00 69 1025.3
20210417175718 47 45 1.0 3.0 0.00 0.00 0.00 69 1025.3
20210417174906 47 278 0.0 3.0 0.00 0.00 0.00 69 1025.3
20210417174340 48 99 0.0 2.0 0.00 0.00 0.00 70 1025.3
20210417173839 48 108 0.0 2.0 0.00 0.00 0.00 69 1025.3
20210417173340 48 344 0.0 3.0 0.00 0.00 0.00 68 1025.3
20210417172936 49 39 0.0 3.0 0.00 0.00 0.00 68 1025.3
20210417172737 49 56 0.0 3.0 0.00 0.00 0.00 67 1025.3
20210417171857 49 295 1.0 3.0 0.00 0.00 0.00 65 1025.3
20210417171336 49 46 1.0 3.0 0.00 0.00 0.00 65 1025.3
20210417170836 49 108 1.0 3.0 0.00 0.00 0.00 63 1025.3